Terug naar catalogus

SL-12 R/B(2)

ActiefGEO
NORAD 20110·ROCKET BODY·🇷🇺 Russia

Gelanceerd Jul 5, 1989 vanaf Baikonur Cosmodrome

Loading…

TLE

VersSource: Space-Track

Epoch: Sep 13, 2026, 17:35 UTC

1 20110U 89052D   26256.73288786 -.00000191  00000-0  00000-0 0  9990
2 20110  10.5407 327.9198 0034149 278.4389  75.6810  1.03061461139893

Volg SL-12 R/B(2) in realtime met AllMySat

Download on the App Store